Retour au catalogue

CZ-6A DEB

ActifPO
NORAD 54487·DEBRIS·🇨🇳 China

Lancé Nov 11, 2022 depuis Taiyuan Satellite Launch Center

Loading…

Prochains Passages (prochaines 24 heures)

TLE

FraisSource: Space-Track

Époque: Sep 14, 2026, 05:16 UTC

1 54487U 22151HP  26257.22004235  .00025884  00000-0  21089-2 0  9998
2 54487  98.6500 347.0146 0038057 314.1935  45.6160 14.98902888202285

Suivez CZ-6A DEB en temps réel avec AllMySat

Download on the App Store